1499796000.7,4885,20.38,74044.0,6.83,3.45,2.17,0,*47
1499796001.94,4886,20.38,74042.0,6.81,3.45,2.05,0,*45
1499796003.14,4887,20.38,74040.3,6.83,3.25,1.93,0,*4C
1499796004.35,4888,20.38,74040.3,6.83,2.85,1.59,0,*4E
1499796005.57,4889,20.38,74040.0,6.81,2.65,1.43,0,*48
1499796006.8,4890,20.38,74038.3,6.81,2.55,1.43,0,*43
1499796008.04,4891,20.38,74036.5,6.81,2.43,1.43,0,*45
1499796009.28,4892,20.38,74038.0,6.81,2.25,1.55,0,*41
1499796010.52,4893,20.38,74036.3,6.81,2.01,1.59,0,*4A
1499796011.73,4894,20.38,74034.8,6.79,2.01,1.67,0,*47
1499796012.94,4895,20.38,74032.3,6.79,1.97,1.97,0,*45
1499796014.16,4896,20.38,74034.0,6.79,1.97,2.09,0,*42
1499796015.38,4897,20.38,74034.3,6.79,2.01,2.39,0,*4C
1499796016.58,4898,20.38,74028.0,6.75,2.21,2.65,0,*44
1499796017.77,4899,20.38,74028.5,6.79,2.39,2.95,0,*4F
1499796018.96,4900,20.38,74028.3,6.79,2.69,3.29,0,*4D
1499796020.18,4901,20.38,74032.5,6.79,2.81,3.45,0,*40
1499796021.37,4902,20.38,74038.8,6.79,2.95,3.53,0,*41
1499796022.58,4903,20.38,74034.3,6.79,3.19,3.79,0,*4D
1499796023.77,4904,20.38,74028.0,6.79,3.33,3.89,0,*4D
1499796024.96,4905,20.38,74030.0,6.79,3.55,4.05,0,*4F
1499796026.15,4906,20.38,74038.3,6.81,3.93,4.19,0,*4C
1499796027.38,4907,20.38,74032.3,6.81,4.05,4.37,0,*49
1499796028.58,4908,20.38,74034.0,6.81,4.07,4.37,0,*44
1499796029.75,4909,20.38,74034.0,6.83,4.07,4.27,0,*46
1499796030.94,4910,20.38,74032.8,6.79,4.05,4.11,0,*4C
1499796032.14,4911,20.38,74032.8,6.81,4.07,4.15,0,*4C
1499796033.32,4912,20.38,74034.0,6.83,4.07,4.07,0,*4E
1499796034.49,4913,20.38,74032.0,6.83,4.27,4.15,0,*4E
1499796035.66,4914,20.38,74036.3,6.83,4.37,4.19,0,*44
1499796036.86,4915,20.38,74038.0,6.81,4.41,4.07,0,*49
1499796038.05,4916,20.38,74038.5,6.81,4.53,4.15,0,*4A
1499796039.22,4917,20.38,74042.8,6.83,4.49,3.93,0,*4B
1499796040.42,4918,20.38,74040.3,6.83,4.31,3.81,0,*48
1499796041.64,4919,20.38,74046.3,6.81,4.41,3.67,0,*44
1499796042.86,4920,20.38,74042.8,6.81,4.53,3.71,0,*4A
1499796044.05,4921,20.38,74046.5,6.81,4.53,3.59,0,*41
1499796045.25,4922,20.38,74046.8,6.83,4.53,3.37,0,*48
1499796046.45,4923,20.38,74046.0,6.83,4.41,3.33,0,*4E
1499796047.67,4924,20.38,74048.0,6.83,4.67,3.33,0,*4D
1499796048.89,4925,20.38,74046.5,6.83,4.67,3.11,0,*4C
1499796050.11,4926,20.38,74044.5,6.81,4.53,2.85,0,*46
1499796051.3,4927,20.38,74050.3,6.81,4.41,2.65,0,*4A
1499796052.48,4928,20.38,74048.3,6.83,4.53,2.65,0,*44
1499796053.67,4929,20.38,74050.5,6.81,4.49,2.61,0,*48
1499796054.88,4930,20.38,74054.3,6.83,4.37,2.39,0,*46
1499796056.07,4931,20.38,74054.3,6.83,4.31,2.35,0,*4D
1499796057.3,4932,20.38,74054.5,6.83,4.31,2.13,0,*4A
1499796058.51,4933,20.38,74050.8,6.83,4.37,2.13,0,*4D
1499796059.71,4934,20.38,74056.0,6.83,4.37,2.13,0,*4A
1499796060.91,4935,20.38,74054.8,6.83,4.27,2.01,0,*49
1499796062.13,4936,20.38,74054.8,6.83,4.31,1.93,0,*45
1499796063.33,4937,20.38,74052.5,6.85,4.19,1.85,0,*4F
1499796064.52,4938,20.38,74058.0,6.85,4.19,1.85,0,*40
1499796065.7,4939,20.38,74052.5,6.85,4.11,1.83,0,*4F
1499796066.87,4940,20.38,74058.8,6.85,4.11,1.83,0,*41
1499796068.06,4941,20.38,74056.5,6.85,4.19,1.93,0,*49
1499796069.26,4942,20.38,74058.3,6.85,4.19,2.05,0,*46
1499796070.48,4943,20.38,74052.8,6.85,4.31,2.05,0,*4D
1499796071.68,4944,20.38,74056.8,6.85,4.19,2.09,0,*4C
1499796072.87,4945,20.38,74056.0,6.85,4.19,2.05,0,*41
1499796074.04,4946,20.38,74056.5,6.85,4.19,2.27,0,*42
1499796075.26,4947,20.38,74058.5,6.85,4.31,2.43,0,*4B
1499796076.46,4948,20.38,74054.3,6.85,4.41,2.59,0,*48
1499796077.65,4949,20.38,74052.8,6.85,4.45,2.69,0,*4E
1499796078.84,4950,20.38,74056.0,6.85,4.45,2.69,0,*46
1499796080.04,4951,20.38,74058.3,6.85,4.53,2.77,0,*4F
1499796081.24,4952,20.38,74054.3,6.85,4.53,2.81,0,*45
1499796082.41,4953,20.38,74052.8,6.85,4.53,2.91,0,*45
1499796083.63,4954,20.38,74054.5,6.87,4.45,3.03,0,*4D
1499796084.86,4955,20.38,74052.8,6.87,4.41,3.03,0,*48
1499796086.08,4956,20.38,74056.8,6.87,4.23,3.11,0,*4C
1499796087.33,4957,20.38,74054.0,6.87,4.31,3.15,0,*4A
1499796088.53,4958,20.38,74054.3,6.87,4.23,3.25,0,*45
1499796089.7,4959,20.38,74056.5,6.85,4.19,3.25,0,*4F
1499796090.88,4960,20.38,74056.5,6.85,4.11,3.25,0,*4D
1499796092.05,4961,20.38,74056.3,6.85,4.11,3.25,0,*4C
1499796093.23,4962,20.38,74054.8,6.85,4.11,3.29,0,*43
1499796094.43,4963,20.38,74054.5,6.87,4.11,3.29,0,*40
1499796095.6,4964,20.38,74056.5,6.85,4.11,3.25,0,*49
1499796096.82,4965,20.38,74052.8,6.87,4.19,3.37,0,*41
1499796098.02,4966,20.38,74054.5,6.85,4.19,3.37,0,*40
1499796099.24,4967,20.38,74054.8,6.87,4.23,3.37,0,*4A
1499796100.47,4968,20.38,74052.0,6.85,4.31,3.37,0,*44
1499796101.66,4969,20.38,74056.3,6.85,4.23,3.37,0,*46
1499796102.89,4970,20.38,74058.5,6.87,4.23,3.41,0,*4D
1499796104.12,4971,20.38,74052.0,6.87,4.23,3.49,0,*44
1499796105.34,4972,20.38,74054.8,6.87,4.23,3.49,0,*47
1499796106.54,4973,20.38,74056.3,6.85,4.11,3.53,0,*4E
1499796107.76,4974,20.38,74054.0,6.87,4.23,3.53,0,*4A
1499796108.97,4975,20.38,74056.8,6.87,4.19,3.53,0,*42
1499796110.17,4976,20.38,74056.0,6.85,4.19,3.49,0,*48
1499796111.37,4977,20.38,74056.0,6.87,4.19,3.59,0,*4A
1499796112.53,4978,20.38,74058.5,6.85,4.23,3.63,0,*47
1499796113.7,4979,20.38,74056.0,6.85,4.11,3.63,0,*47
1499796114.93,4980,20.38,74060.0,6.87,4.19,3.71,0,*48
1499796116.15,4981,20.38,74056.8,6.87,4.19,3.71,0,*49
1499796117.37,4982,20.38,74060.8,6.87,4.19,3.75,0,*4E
1499796118.57,4983,20.38,74056.0,6.87,4.19,3.81,0,*44
1499796119.77,4984,20.38,74060.5,6.89,4.15,3.79,0,*46
1499796120.97,4985,20.38,74060.5,6.89,4.11,3.79,0,*43
1499796122.2,4986,20.38,74062.3,6.89,4.05,3.75,0,*49
1499796123.43,4987,20.38,74060.8,6.89,4.05,3.75,0,*48
1499796124.65,4988,20.38,74060.3,6.87,3.97,3.63,0,*42
1499796125.87,4989,20.38,74058.8,6.87,4.01,3.63,0,*4B
1499796127.09,4990,20.38,74060.3,6.87,3.97,3.59,0,*42
1499796128.32,4991,20.38,74056.8,6.87,4.07,3.71,0,*47
1499796129.54,4992,20.38,74058.5,6.87,4.07,3.53,0,*44
1499796130.77,4993,20.38,74062.3,6.87,4.07,3.49,0,*4E
1499796132.0,4994,20.38,74058.8,6.87,4.07,3.41,0,*41
1499796133.25,4995,20.38,74062.5,6.87,4.01,3.41,0,*46
1499796134.48,4996,20.38,74060.8,6.89,4.01,3.33,0,*4E
1499796135.67,4997,20.38,74062.5,6.89,4.01,3.29,0,*44
1499796136.89,4998,20.38,74060.5,6.89,4.01,3.23,0,*41
1499796138.09,4999,20.38,74062.5,6.89,3.93,3.19,0,*45
1499796139.29,5000,20.38,74060.3,6.89,3.93,3.23,0,*44
1499796140.47,5001,20.38,74064.0,6.89,3.89,3.29,0,*44
1499796141.67,5002,20.38,74064.0,6.89,3.89,3.23,0,*4D
1499796142.87,5003,20.38,74064.8,6.89,3.89,3.41,0,*48
1499796144.08,5004,20.38,74064.3,6.89,3.75,3.29,0,*42
1499796145.31,5005,20.38,74064.0,6.89,3.79,3.33,0,*44
1499796146.55,5006,20.38,74064.3,6.89,3.75,3.41,0,*4E
1499796147.75,5007,20.31,74064.3,6.89,3.63,3.41,0,*48
1499796148.98,5008,20.38,74066.3,6.87,3.63,3.41,0,*49
1499796150.21,5009,20.38,74064.5,6.87,3.59,3.41,0,*41
1499796151.45,5010,20.38,74068.0,6.87,3.53,3.41,0,*43
1499796152.7,5011,20.38,74064.0,6.87,3.53,3.53,0,*41
1499796153.94,5012,20.38,74064.0,6.87,3.49,3.53,0,*49
1499796155.18,5013,20.38,74064.8,6.87,3.37,3.37,0,*43
1499796156.43,5014,20.38,74064.3,6.87,3.19,3.37,0,*48
1499796157.67,5015,20.38,74064.8,6.87,3.19,3.37,0,*49
1499796158.9,5016,20.38,74064.8,6.87,3.25,3.41,0,*44
1499796160.13,5017,20.38,74066.8,6.87,3.29,3.41,0,*49
1499796161.35,5018,20.38,74064.5,6.85,3.41,3.53,0,*49
1499796162.55,5019,20.38,74062.3,6.85,3.41,3.63,0,*4B
1499796163.77,5020,20.38,74060.8,6.87,3.49,3.59,0,*42
1499796164.93,5021,20.38,74056.3,6.83,3.55,3.59,0,*4A
1499796166.14,5022,20.38,74056.8,6.85,3.49,3.53,0,*48
1499796167.34,5023,20.38,74056.8,6.85,3.71,3.59,0,*48
1499796168.54,5024,20.38,74056.8,6.83,3.67,3.55,0,*42
1499796169.74,5025,20.38,74060.5,6.83,3.79,3.55,0,*4C
1499796170.93,5026,20.38,74056.8,6.83,3.85,3.67,0,*4D
1499796172.1,5027,20.38,74056.3,6.83,3.85,3.55,0,*4D
1499796173.27,5028,20.38,74056.3,6.83,3.93,3.55,0,*45
1499796174.47,5029,20.38,74056.0,6.83,3.85,3.37,0,*47
1499796175.69,5030,20.38,74058.3,6.83,3.97,3.33,0,*48
1499796176.92,5031,20.38,74054.5,6.83,3.97,3.15,0,*4D
1499796178.09,5032,20.38,74056.3,6.83,3.93,2.95,0,*43
1499796179.29,5033,20.31,74056.0,6.83,4.05,2.99,0,*46
1499796180.51,5034,20.38,74058.3,6.81,3.93,2.85,0,*46
1499796181.74,5035,20.38,74058.5,6.81,3.79,2.61,0,*49
1499796182.96,5036,20.31,74056.5,6.81,3.59,2.51,0,*4B
1499796184.15,5037,20.38,74058.3,6.83,3.55,2.43,0,*47
1499796185.35,5038,20.38,74056.5,6.83,3.45,2.35,0,*48
1499796186.59,5039,20.38,74058.5,6.81,3.37,2.25,0,*4F
1499796187.82,5040,20.31,74056.0,6.83,3.23,2.17,0,*47
1499796189.02,5041,20.31,74056.8,6.83,3.15,2.27,0,*40
1499796190.27,5042,20.38,74056.3,6.81,3.07,2.17,0,*41
1499796191.51,5043,20.31,74056.8,6.81,2.89,2.13,0,*43
1499796192.75,5044,20.31,74058.5,6.81,2.89,2.25,0,*41
1499796193.97,5045,20.31,74054.8,6.81,2.89,2.35,0,*41
1499796195.18,5046,20.38,74058.0,6.81,2.77,2.27,0,*40
1499796196.39,5047,20.31,74056.8,6.81,2.73,2.35,0,*46
1499796197.56,5048,20.38,74058.5,6.83,2.65,2.27,0,*4F
1499796198.75,5049,20.38,74056.8,6.81,2.61,2.35,0,*4B
1499796200.0,5050,20.38,74060.3,6.81,2.51,2.39,0,*4C
1499796201.25,5051,20.38,74060.3,6.81,2.43,2.39,0,*4E
1499796202.47,5052,20.38,74060.0,6.81,2.35,2.39,0,*4C
1499796203.67,5053,20.38,74060.5,6.83,2.17,2.27,0,*40
1499796204.88,5054,20.38,74062.0,6.81,2.13,2.35,0,*42
1499796206.13,5055,20.31,74056.3,6.81,2.01,2.39,0,*4C
1499796207.37,5056,20.31,74058.5,6.81,1.89,2.39,0,*4C
1499796208.59,5057,20.31,74058.8,6.83,1.67,2.39,0,*4F
1499796209.83,5058,20.38,74062.0,6.81,1.71,2.39,0,*45
1499796211.05,5059,20.38,74062.8,6.79,1.67,2.47,0,*4D
1499796212.25,5060,20.38,74062.5,6.81,1.83,2.65,0,*4A
1499796213.49,5061,20.31,74056.3,6.81,2.01,2.77,0,*41
1499796214.71,5062,20.31,74056.3,6.81,2.25,2.99,0,*44
1499796215.92,5063,20.31,74056.3,6.81,2.35,3.07,0,*42
1499796217.17,5064,20.31,74056.5,6.81,2.39,3.15,0,*4A
1499796218.38,5065,20.31,74056.5,6.79,2.59,3.19,0,*46
1499796219.62,5066,20.38,74058.8,6.81,2.55,3.23,0,*47
1499796220.86,5067,20.38,74060.8,6.81,2.55,3.23,0,*46
1499796222.03,5068,20.38,74060.8,6.79,2.61,3.29,0,*43
1499796223.22,5069,20.31,74058.5,6.79,2.69,3.29,0,*4A
1499796224.41,5070,20.31,74058.0,6.79,2.69,3.29,0,*42
1499796225.6,5071,20.31,74058.8,6.79,2.73,3.29,0,*48
1499796226.79,5072,20.38,74060.3,6.79,2.81,3.29,0,*46
1499796227.98,5073,20.38,74058.0,6.75,2.89,3.25,0,*4F
1499796229.16,5074,20.38,74056.0,6.75,2.99,3.25,0,*49
1499796230.38,5075,20.38,74058.0,6.79,3.11,3.23,0,*43
1499796231.56,5076,20.31,74056.3,6.79,3.29,3.23,0,*4B
1499796232.77,5077,20.38,74056.0,6.79,3.33,3.19,0,*48
1499796234.0,5078,20.38,74062.0,6.79,3.41,3.03,0,*49
1499796235.18,5079,20.31,74058.3,6.79,3.55,3.03,0,*4D
1499796236.39,5080,20.38,74060.3,6.79,3.53,2.85,0,*42
1499796237.58,5081,20.38,74060.5,6.79,3.55,2.73,0,*4C
1499796238.78,5082,20.31,74058.5,6.83,3.45,2.61,0,*48
1499796239.98,5083,20.38,74062.8,6.79,3.41,2.35,0,*49
1499796241.21,5084,20.38,74062.0,6.81,3.33,2.01,0,*4B
1499796242.43,5085,20.31,74058.5,6.79,3.33,1.85,0,*42
1499796243.62,5086,20.38,74062.3,6.79,3.29,1.63,0,*42
1499796244.83,5087,20.38,74060.3,6.79,3.33,1.37,0,*49
1499796246.02,5088,20.38,74062.0,6.79,3.29,1.25,0,*4E
1499796247.22,5089,20.31,74062.3,6.79,3.23,1.01,0,*43
1499796248.43,5090,20.38,74060.8,6.79,3.11,0.75,0,*78
1499796249.68,5091,20.38,74062.0,6.81,3.11,0.59,0,*70
1499796250.84,5092,20.31,74058.3,6.83,2.99,0.43,0,*7B
1499796252.08,5093,20.31,74058.5,6.81,2.89,0.25,0,*79
1499796253.29,5094,20.31,74060.0,6.81,2.77,0.09,0,*41
1499796254.5,5095,20.38,74062.5,6.81,2.73,-0.07,0,*67
1499796255.7,5096,20.38,74060.5,6.81,2.65,-0.19,0,*5C
1499796256.92,5097,20.38,74066.5,6.81,2.65,-0.27,0,*50
1499796258.14,5098,20.31,74060.8,6.81,2.55,-0.37,0,*5D
1499796259.35,5099,20.38,74064.0,6.83,2.55,-0.41,0,*5F
1499796260.57,5100,20.38,74062.5,6.81,2.39,-0.61,0,*54
1499796261.81,5101,20.31,74058.8,6.81,2.13,-0.93,0,*50
1499796263.03,5102,20.31,74058.5,6.81,1.93,-1.17,0,*65
1499796264.23,5103,20.31,74056.8,6.79,1.97,-1.17,0,*67
1499796265.43,5104,20.31,74056.3,6.79,1.97,-1.21,0,*65
1499796266.66,5105,20.31,74056.3,6.75,2.01,-1.09,0,*6E
1499796267.88,5106,20.38,74058.0,6.79,2.13,-1.05,0,*6E
1499796269.11,5107,20.31,74058.8,6.75,1.97,-1.13,0,*6B
1499796270.31,5108,20.31,74056.3,6.75,1.93,-1.25,0,*65
1499796271.51,5109,20.31,74058.5,6.79,1.89,-1.21,0,*67
1499796272.73,5110,20.31,74056.3,6.75,1.59,-1.35,0,*6B
1499796273.96,5111,20.31,74056.3,6.79,1.63,-1.43,0,*6E
1499796275.19,5112,20.38,74064.3,6.79,1.29,-1.43,0,*63
1499796276.42,5113,20.31,74060.5,6.79,1.17,-1.43,0,*6F
1499796277.62,5114,20.31,74060.5,6.79,0.91,-1.51,0,*54
1499796278.82,5115,20.31,74062.0,6.75,0.79,-1.55,0,*5B
1499796280.01,5116,20.38,74062.5,6.79,0.75,-1.29,0,*53
1499796281.23,5117,20.31,74060.0,6.75,0.51,-1.35,0,*55
1499796282.45,5118,20.38,74062.3,6.75,0.13,-1.43,0,*5D
1499796283.64,5119,20.31,74062.8,6.75,0.05,-1.13,0,*6E
1499796284.84,5120,20.31,74062.8,6.73,0.01,-0.89,0,*54
1499796286.03,5121,20.38,74062.8,6.73,0.01,-0.69,0,*5B
1499796287.2,5122,20.31,74062.0,6.75,-0.11,-0.45,0,*4C
1499796288.4,5123,20.38,74062.5,6.75,-0.07,-0.27,0,*7E
1499796289.57,5124,20.31,74056.5,6.75,-0.11,0.05,0,*53
1499796290.77,5125,20.38,74056.8,6.75,-0.11,0.37,0,*63
1499796291.96,5126,20.31,74056.5,6.71,-0.27,0.43,0,*62
1499796293.18,5127,20.31,74056.3,6.69,-0.15,0.83,0,*67
1499796294.39,5128,20.31,74058.3,6.71,0.13,1.33,0,*70
1499796295.6,5129,20.38,74060.0,6.71,0.29,1.59,0,*74
1499796296.84,5130,20.31,74058.8,6.73,0.41,1.85,0,*71
1499796298.05,5131,20.38,74058.8,6.71,0.37,2.05,0,*78
1499796299.27,5132,20.31,74056.0,6.71,0.47,2.17,0,*7F
1499796300.42,5133,20.31,74058.0,6.71,0.43,2.27,0,*79
1499796301.61,5134,20.31,74056.0,6.71,0.43,2.39,0,*71
1499796302.85,5135,20.31,74056.8,6.73,0.41,2.43,0,*7D
1499796304.08,5136,20.31,74056.3,6.73,0.47,2.55,0,*7F
1499796305.3,5137,20.31,74054.0,6.73,0.59,2.65,0,*72
1499796306.51,5138,20.31,74056.8,6.71,0.59,2.73,0,*78
1499796307.73,5139,20.31,74056.0,6.71,0.59,2.77,0,*7D
1499796308.94,5140,20.31,74058.5,6.71,0.59,2.85,0,*7E
1499796310.16,5141,20.31,74058.0,6.71,0.55,2.77,0,*7E
1499796311.38,5142,20.31,74054.5,6.71,0.55,2.77,0,*7D
1499796312.61,5143,20.31,74052.5,6.69,0.59,2.85,0,*74
1499796313.86,5144,20.38,74058.0,6.69,0.71,2.89,0,*75
1499796315.07,5145,20.31,74052.8,6.69,0.71,2.95,0,*79
1499796316.28,5146,20.31,74054.3,6.69,0.75,2.95,0,*7E
1499796317.49,5147,20.38,74056.0,6.69,0.75,2.95,0,*7F
1499796318.71,5148,20.31,74054.3,6.69,0.87,2.95,0,*7D
1499796319.96,5149,20.38,74054.3,6.69,1.17,3.15,0,*4D
1499796321.22,5150,20.31,74050.3,6.69,1.33,3.33,0,*47
1499796322.47,5151,20.38,74056.5,6.69,1.47,3.45,0,*44
1499796323.68,5152,20.38,74056.3,6.69,1.67,3.55,0,*44
1499796324.9,5153,20.38,74054.8,6.69,1.83,3.71,0,*49
1499796326.13,5154,20.38,74056.5,6.67,1.85,3.67,0,*41
1499796327.34,5155,20.31,74050.8,6.67,2.09,3.89,0,*47
1499796328.54,5156,20.31,74052.5,6.69,2.31,3.93,0,*4A
1499796329.74,5157,20.31,74054.8,6.67,2.47,3.93,0,*44
1499796330.96,5158,20.31,74050.3,6.67,2.73,4.01,0,*40
1499796332.18,5159,20.31,74054.3,6.69,3.11,4.15,0,*4F
1499796333.4,5160,20.31,74048.0,6.69,3.37,4.27,0,*40
1499796334.62,5161,20.31,74048.8,6.69,3.55,4.31,0,*42
1499796335.82,5162,20.31,74052.5,6.69,3.81,4.37,0,*4E
1499796337.04,5163,20.31,74050.8,6.69,4.05,4.49,0,*4D
1499796338.22,5164,20.31,74050.0,6.71,4.27,4.49,0,*43
1499796339.4,5165,20.31,74048.5,6.71,4.37,4.41,0,*4B
1499796340.57,5166,20.31,74048.3,6.71,4.57,4.53,0,*4D
1499796341.82,5167,20.31,74048.5,6.73,4.71,4.67,0,*4D
1499796343.02,5168,20.31,74050.3,6.71,4.85,4.67,0,*4B
1499796344.2,5169,20.31,74048.8,6.71,4.57,4.41,0,*41
1499796345.37,5170,20.31,74048.0,6.71,4.41,4.45,0,*4A
1499796346.57,5171,20.31,74050.0,6.73,4.57,4.41,0,*4A
1499796347.8,5172,20.31,74048.5,6.73,4.67,4.57,0,*4D
1499796349.02,5173,20.31,74052.8,6.73,4.67,4.57,0,*4C
1499796350.24,5174,20.38,74052.8,6.73,4.67,4.45,0,*48
1499796351.47,5175,20.31,74052.0,6.73,4.59,4.33,0,*45
1499796352.68,5176,20.31,74054.0,6.75,4.71,4.33,0,*4A
1499796353.9,5177,20.31,74048.5,6.73,4.59,4.11,0,*47
1499796355.12,5178,20.31,74052.3,6.73,4.53,3.75,0,*47
1499796356.29,5179,20.31,74052.8,6.71,4.33,3.59,0,*4C
1499796357.52,5180,20.31,74054.5,6.71,4.31,3.45,0,*45
1499796358.73,5181,20.31,74052.8,6.71,4.37,3.49,0,*4E
1499796359.93,5182,20.31,74054.3,6.71,4.37,3.49,0,*4D
1499796361.13,5183,20.31,74054.3,6.71,4.41,3.37,0,*44
1499796362.32,5184,20.31,74050.0,6.71,4.63,3.59,0,*4B
1499796363.51,5185,20.31,74050.3,6.73,4.81,3.85,0,*45
1499796364.77,5186,20.31,74052.5,6.73,4.71,3.75,0,*46
1499796365.99,5187,20.31,74052.3,6.73,4.57,3.37,0,*45
1499796367.2,5188,20.31,74050.8,6.73,4.23,3.19,0,*45
1499796368.42,5189,20.31,74054.8,6.73,4.01,2.99,0,*4D
1499796369.62,5190,20.31,74052.8,6.73,4.07,2.91,0,*4B
1499796370.87,5191,20.31,74048.8,6.73,4.01,3.03,0,*46
1499796372.11,5192,20.31,74048.8,6.73,4.01,3.15,0,*42
1499796373.36,5193,20.31,74054.0,6.73,4.31,3.53,0,*42
1499796374.61,5194,20.31,74050.3,6.73,4.31,3.49,0,*4E
1499796375.83,5195,20.31,74050.0,6.73,4.07,3.19,0,*4F
1499796377.05,5196,20.31,74052.8,6.71,3.97,2.77,0,*49
1499796378.25,5197,20.31,74052.0,6.71,3.81,2.39,0,*45
1499796379.47,5198,20.31,74052.3,6.73,3.59,2.21,0,*44
1499796380.67,5199,20.31,74054.5,6.71,3.15,1.83,0,*44
1499796381.89,5200,20.31,74052.5,6.73,3.25,2.09,0,*47
1499796383.12,5201,20.31,74052.0,6.73,3.25,2.05,0,*4A
1499796384.37,5202,20.31,74052.8,6.73,3.03,1.85,0,*46
1499796385.61,5203,20.38,74056.3,6.73,2.69,1.63,0,*42
1499796386.8,5204,20.31,74056.5,6.71,2.31,1.43,0,*48
1499796388.02,5205,20.31,74056.8,6.71,1.89,1.33,0,*4E
1499796389.27,5206,20.31,74052.8,6.73,1.85,1.51,0,*47
1499796390.52,5207,20.31,74054.3,6.73,1.21,1.21,0,*4F
1499796391.72,5208,20.31,74054.5,6.71,0.67,0.95,0,*4F
1499796392.93,5209,20.31,74054.5,6.71,0.33,0.55,0,*43
1499796394.17,5210,20.31,74052.8,6.73,0.75,1.09,0,*73
1499796395.41,5211,20.31,74054.3,6.73,0.75,1.21,0,*78
1499796396.62,5212,20.31,74056.0,6.71,0.71,1.37,0,*7A
1499796397.83,5213,20.31,74054.3,6.71,0.33,1.09,0,*70
1499796399.03,5214,20.31,74054.3,6.71,-0.49,0.75,0,*6D
1499796400.27,5215,20.31,74052.3,6.73,-0.85,0.63,0,*69
1499796401.52,5216,20.31,74048.3,6.69,-1.05,0.75,0,*5F
1499796402.74,5217,20.31,74054.3,6.69,-1.13,0.97,0,*55
1499796403.97,5218,20.31,74052.8,6.71,-1.01,1.33,0,*6F
1499796405.22,5219,20.31,74054.3,6.69,-1.01,1.47,0,*64
1499796406.44,5220,20.31,74052.8,6.71,-1.01,1.67,0,*65
1499796407.67,5221,20.31,74048.5,6.71,-1.05,1.59,0,*6D
1499796408.88,5222,20.31,74050.3,6.69,-0.61,1.93,0,*52
1499796410.1,5223,20.31,74050.0,6.69,-0.03,2.43,0,*69
1499796411.35,5224,20.31,74046.0,6.69,0.55,2.89,0,*76
1499796412.6,5225,20.31,74048.0,6.69,1.29,3.23,0,*4C
1499796413.8,5226,20.31,74054.8,6.67,1.75,3.41,0,*4C
1499796415.03,5227,20.31,74054.5,6.67,2.01,3.53,0,*4E
1499796416.25,5228,20.31,74054.3,6.69,1.79,3.45,0,*44
1499796417.49,5229,20.38,74056.0,6.67,1.55,3.45,0,*45
1499796418.73,5230,20.31,74052.0,6.69,1.59,3.67,0,*4F
1499796419.95,5231,20.31,74050.0,6.67,1.89,3.79,0,*42
1499796421.16,5232,20.31,74054.5,6.67,2.09,3.89,0,*45
1499796422.38,5233,20.31,74052.8,6.69,2.27,4.05,0,*45
1499796423.55,5234,20.31,74052.5,6.67,2.35,4.15,0,*4E
1499796424.77,5235,20.31,74048.5,6.69,2.55,4.27,0,*46
1499796425.96,5236,20.31,74048.3,6.69,2.65,4.27,0,*46
1499796427.17,5237,20.31,74046.0,6.69,2.65,4.37,0,*46
1499796428.41,5238,20.31,74048.0,6.69,2.85,4.31,0,*41
1499796429.61,5239,20.31,74048.8,6.67,2.89,4.15,0,*44
1499796430.83,5240,20.31,74048.0,6.69,3.15,4.27,0,*41
1499796432.03,5241,20.31,74050.3,6.69,3.25,4.37,0,*42
1499796433.26,5242,20.31,74052.8,6.69,3.49,4.41,0,*4A
1499796434.49,5243,20.31,74052.5,6.69,3.75,4.37,0,*45
1499796435.71,5244,20.31,74052.0,6.69,3.75,4.27,0,*43
1499796436.91,5245,20.31,74052.0,6.67,3.71,4.11,0,*4D
1499796438.1,5246,20.31,74052.0,6.69,3.55,3.93,0,*4B
1499796439.35,5247,20.31,74052.3,6.69,3.33,3.71,0,*46
1499796440.6,5248,20.31,74052.0,6.69,3.23,3.71,0,*48
1499796441.8,5249,20.31,74050.8,6.67,3.23,3.89,0,*40
1499796443.03,5250,20.31,74048.8,6.69,3.23,3.93,0,*4D
1499796444.25,5251,20.31,74050.0,6.69,2.99,3.97,0,*48
1499796445.5,5252,20.31,74052.0,6.69,3.03,4.05,0,*45
1499796446.69,5253,20.31,74054.3,6.69,3.25,4.15,0,*41
1499796447.91,5254,20.31,74050.5,6.69,3.49,4.27,0,*4D
1499796449.15,5255,20.31,74050.5,6.69,3.97,4.63,0,*4F
1499796450.36,5256,20.31,74052.8,6.71,4.41,4.75,0,*4E
1499796451.58,5257,20.31,74052.0,6.69,4.67,4.89,0,*41
1499796452.79,5258,20.31,74052.8,6.69,4.67,4.89,0,*4E
1499796454.02,5259,20.31,74052.3,6.71,4.79,4.97,0,*46
1499796455.23,5260,20.31,74052.5,6.71,4.85,5.01,0,*41
1499796456.42,5261,20.31,74052.0,6.71,4.79,4.89,0,*42
1499796457.65,5262,20.31,74054.3,6.71,4.63,4.75,0,*49
1499796458.83,5263,20.31,74054.5,6.71,4.37,4.41,0,*4E
1499796460.0,5264,20.31,74058.3,6.71,4.07,4.19,0,*47
1499796461.2,5265,20.31,74062.0,6.71,3.75,3.85,0,*46
1499796462.43,5266,20.31,74056.5,6.71,3.45,3.49,0,*46
1499796463.67,5267,20.38,74064.5,6.69,3.11,3.23,0,*43
1499796464.91,5268,20.31,74058.5,6.69,2.73,2.77,0,*49
1499796466.14,5269,20.31,74058.8,6.69,2.65,2.73,0,*4B
1499796467.36,5270,20.31,74056.3,6.69,3.03,2.99,0,*46
1499796468.59,5271,20.31,74058.3,6.69,2.77,2.61,0,*42
1499796469.76,5272,20.31,74050.5,6.67,2.61,2.35,0,*49
1499796470.96,5273,20.31,74050.3,6.67,2.61,2.21,0,*4D
1499796472.18,5274,20.31,74058.3,6.67,2.81,2.21,0,*44
1499796473.38,5275,20.31,74058.3,6.63,2.81,1.83,0,*4A
1499796474.6,5276,20.31,74060.8,6.63,2.59,1.47,0,*44
1499796475.84,5277,20.31,74056.3,6.65,2.69,1.25,0,*44
1499796477.08,5278,20.31,74058.0,6.65,2.89,1.09,0,*4B
1499796478.3,5279,20.31,74060.3,6.63,2.55,0.41,0,*70
1499796479.46,5280,20.31,74060.0,6.63,2.35,0.01,0,*44
1499796480.64,5281,20.31,74052.0,6.63,2.31,-0.33,0,*5D
1499796481.86,5282,20.31,74054.3,6.61,2.13,-0.65,0,*5F
1499796483.08,5283,20.31,74058.8,6.63,1.97,-0.93,0,*5A
1499796484.26,5284,20.31,74056.8,6.63,1.83,-1.33,0,*63
1499796485.52,5285,20.31,74054.8,6.61,1.33,-1.87,0,*64
1499796486.76,5286,20.31,74056.8,6.61,1.09,-2.15,0,*66
1499796487.99,5287,20.31,74062.3,6.59,0.75,-2.47,0,*51
1499796489.18,5288,20.31,74058.3,6.59,0.43,-2.75,0,*5A
1499796490.38,5289,20.31,74062.0,6.59,0.21,-3.03,0,*5F
1499796491.59,5290,20.31,74062.8,6.61,-0.11,-3.35,0,*77
1499796492.77,5291,20.31,74060.8,6.59,-0.65,-3.79,0,*76
1499796493.99,5292,20.31,74056.3,6.59,-1.13,-4.25,0,*4B
1499796495.18,5293,20.31,74054.0,6.59,-1.63,-4.57,0,*48
1499796496.4,5294,20.31,74054.8,6.59,-2.27,-5.23,0,*4E
1499796497.63,5295,20.31,74056.3,6.53,-2.55,-5.39,0,*4B
1499796498.87,5296,20.31,74058.0,6.57,-2.95,-5.65,0,*49
1499796500.11,5297,20.31,74058.5,6.57,-3.19,-5.65,0,*4D
1499796501.37,5298,20.31,74060.3,6.53,-3.63,-5.81,0,*41
1499796502.61,5299,20.31,74060.0,6.57,-3.83,-5.77,0,*43
1499796503.86,5300,20.31,74062.5,6.57,-4.33,-5.89,0,*4F
1499796505.11,5301,20.31,74060.8,6.53,-4.77,-5.93,0,*41
1499796506.34,5302,20.31,74060.0,6.57,-4.99,-5.65,0,*4F
1499796507.58,5303,20.31,74060.8,6.53,-5.31,-5.51,0,*4E
1499796508.84,5304,20.31,74060.0,6.53,-5.77,-5.15,0,*4B
1499796510.08,5305,20.31,74058.3,6.53,-5.89,-4.61,0,*49
1499796511.33,5306,20.31,74056.8,6.53,-6.23,-4.01,0,*4F
1499796512.57,5307,20.31,74052.0,6.51,-5.93,-3.07,0,*45
1499796513.81,5308,20.31,74058.3,6.51,-5.69,-2.23,0,*48
1499796515.08,5309,20.31,74060.0,6.51,-5.27,-1.35,0,*47
1499796516.31,5310,20.31,74060.3,6.51,-4.73,-0.49,0,*75
1499796517.53,5311,20.31,74056.5,6.51,-4.13,0.17,0,*54
1499796518.72,5312,20.31,74058.3,6.49,-3.55,0.97,0,*53
1499796519.92,5313,20.31,74058.0,6.49,-2.91,1.59,0,*68
1499796521.12,5314,20.31,74056.8,6.49,-2.35,2.09,0,*67
1499796522.32,5315,20.31,74058.5,6.49,-1.75,2.55,0,*68
1499796523.52,5316,20.31,74058.5,6.49,-1.25,2.77,0,*6E
1499796524.69,5317,20.31,74058.0,6.49,-0.53,2.99,0,*5F
1499796525.86,5318,20.31,74052.5,6.49,-0.03,3.25,0,*63
1499796527.05,5319,20.31,74052.0,6.49,0.59,3.59,0,*7B
1499796528.25,5320,20.31,74054.5,6.49,1.25,3.81,0,*4E
1499796529.45,5321,20.31,74054.5,6.49,1.47,3.81,0,*4B
1499796530.65,5322,20.31,74054.3,6.49,1.93,3.85,0,*45
1499796531.87,5323,20.31,74052.8,6.49,2.51,3.97,0,*4A
1499796533.07,5324,20.31,74054.3,6.49,3.03,4.07,0,*45
1499796534.28,5325,20.31,74052.0,6.49,3.67,4.33,0,*41
1499796535.51,5326,20.31,74054.3,6.51,3.75,4.37,0,*4C
1499796536.73,5327,20.31,74052.3,6.51,3.55,4.01,0,*4A